Powrót do katalogu

THOR ABLESTAR DEB

AktywnyLEO
NORAD 354·DEBRIS·🇺🇸 United States

Wystrzelony Jun 29, 1961 z Cape Canaveral Space Force Station

Loading…

Następne Przeloty (najbliższe 24 godziny)

TLE

ŚwieżeSource: Space-Track

Epoka: Sep 10, 2026, 10:19 UTC

1   354U 61015DU  26253.43006310  .00000199  00000-0  38525-3 0  9995
2   354  67.0649 268.1596 0172169 250.4160 222.4011 13.49480989489375

Śledź THOR ABLESTAR DEB w czasie rzeczywistym z AllMySat

Download on the App Store